Charlevoix, MI

10:22 PM EDT on March 23, 2017 (GMT -0400)
Charlevoix Municipal

Weather History for KCVX - October, 2014

Change the Weather History Date:

Thursday, October 16, 2014

  Actual Average Record
Temperature  
Mean Temperature 54 °F -  
Max Temperature 57 °F 53 °F 63 °F (2016)
Min Temperature 51 °F 43 °F 33 °F (2010)
Degree Days  
Heating Degree Days 11    
Growing Degree Days 4 (Base 50)    
Moisture  
Dew Point 53 °F    
Average Humidity 97    
Maximum Humidity 100    
Minimum Humidity 90    
Precipitation  
Precipitation 0.00 in - - ()
Sea Level Pressure  
Sea Level Pressure 29.77 in    
Wind  
Wind Speed 4 mph (NNE)    
Max Wind Speed 8 mph    
Max Gust Speed -    
Visibility 10 miles    
Events      
Averages and records for this station are not official NWS values.
T = Trace of Precipitation, MM = Missing Value Source: NWS Daily Summary

Daily Weather History Graph

Daily Weather History Graph

Search for Another Location

Airport or City:

Trip Planner

Search our weather history database for the weather conditions in past years. The results will help you decide how hot, cold, wet, or windy it might be!

Date:

Astronomy

Oct. 16, 2014 Rise Set
Actual Time 7:58 AM EDT 6:54 PM EDT
Civil Twilight 7:28 AM EDT 7:23 PM EDT
Nautical Twilight 6:54 AM EDT 7:57 PM EDT
Astronomical Twilight 6:20 AM EDT 8:32 PM EDT
Moon 12:50 AM EDT (10/16) 3:21 PM EDT (10/16)
Length of Visible Light 11h 55m
Length of Day
10h 55m
Last Quarter, 42% of the Moon is Illuminated
Oct 16
Last Quarter
Oct 23
New
Oct 30
First Quarter
Nov 6
Full
Nov 14
Last Quarter

Hourly Weather History & Observations

Time (EDT) Temp. Dew Point Humidity Pressure Visibility Wind Dir Wind Speed Gust Speed Precip Events Conditions
12:15 AM 53.2 °F 52.7 °F 98% 29.87 in 10.0 mi NE 4.6 mph - N/A   Overcast
12:35 AM 53.2 °F 52.7 °F 98% 29.86 in 10.0 mi East 4.6 mph - N/A   Overcast
12:54 AM 53.4 °F 52.7 °F 97% 29.85 in 10.0 mi East 6.9 mph - N/A   Overcast
1:15 AM 53.2 °F 52.5 °F 97% 29.84 in 10.0 mi East 6.9 mph - N/A   Overcast
1:34 AM 53.1 °F 52.7 °F 99% 29.84 in 10.0 mi ENE 4.6 mph - N/A   Overcast
1:55 AM 53.1 °F 52.7 °F 99% 29.84 in 10.0 mi East 6.9 mph - N/A   Overcast
2:15 AM 52.9 °F 52.7 °F 99% 29.84 in 10.0 mi ENE 6.9 mph - N/A   Overcast
2:34 AM 52.9 °F 52.7 °F 99% 29.84 in 10.0 mi ENE 5.8 mph - N/A   Overcast
2:55 AM 53.1 °F 52.7 °F 99% 29.83 in 10.0 mi ENE 4.6 mph - N/A   Overcast
3:15 AM 52.9 °F 52.7 °F 99% 29.83 in 10.0 mi East 6.9 mph - N/A   Overcast
3:34 AM 53.1 °F 52.7 °F 99% 29.84 in 10.0 mi ENE 3.5 mph - N/A   Overcast
3:55 AM 52.9 °F 52.7 °F 99% 29.83 in 10.0 mi East 5.8 mph - N/A   Overcast
4:15 AM 52.7 °F 52.7 °F 100% 29.82 in 10.0 mi East 6.9 mph - N/A   Overcast
4:34 AM 52.7 °F 52.7 °F 100% 29.82 in 10.0 mi East 5.8 mph - N/A   Overcast
4:55 AM 52.7 °F 52.7 °F 100% 29.82 in 10.0 mi NE 3.5 mph - N/A   Overcast
5:15 AM 52.7 °F 52.7 °F 100% 29.82 in 10.0 mi Calm Calm - N/A   Overcast
5:34 AM 52.7 °F 52.7 °F 100% 29.82 in 10.0 mi Calm Calm - N/A   Overcast
5:55 AM 52.7 °F 52.7 °F 100% 29.82 in 10.0 mi Calm Calm - N/A   Overcast
6:15 AM 52.7 °F 52.7 °F 100% 29.82 in 10.0 mi Calm Calm - N/A   Overcast
6:34 AM 52.3 °F 52.3 °F 100% 29.82 in 10.0 mi North 3.5 mph - N/A   Overcast
6:55 AM 52.7 °F 52.7 °F 100% 29.83 in 10.0 mi East 4.6 mph - N/A   Overcast
7:14 AM 52.7 °F 52.7 °F 100% 29.83 in 10.0 mi East 5.8 mph - N/A   Overcast
7:35 AM 52.7 °F 52.7 °F 100% 29.83 in 7.0 mi ENE 3.5 mph - N/A   Overcast
7:55 AM 52.7 °F 52.7 °F 100% 29.82 in 10.0 mi Calm Calm - N/A   Overcast
8:14 AM 52.9 °F 52.9 °F 100% 29.82 in 10.0 mi Calm Calm - N/A   Overcast
8:35 AM 53.1 °F 53.1 °F 100% 29.83 in 10.0 mi Calm Calm - N/A   Overcast
8:55 AM 53.2 °F 53.2 °F 100% 29.82 in 10.0 mi Calm Calm - N/A   Overcast
9:14 AM 53.2 °F 53.2 °F 100% 29.82 in 10.0 mi Calm Calm - N/A   Overcast
9:35 AM 53.6 °F 53.6 °F 100% 29.81 in 10.0 mi Calm Calm - N/A   Overcast
9:55 AM 54.3 °F 53.6 °F 97% 29.81 in 10.0 mi Calm Calm - N/A   Overcast
10:14 AM 54.5 °F 53.6 °F 97% 29.81 in 10.0 mi NE 4.6 mph - N/A   Overcast
10:35 AM 54.5 °F 53.6 °F 97% 29.81 in 10.0 mi Calm Calm - N/A   Overcast
10:55 AM 54.5 °F 53.6 °F 97% 29.81 in 10.0 mi ESE 3.5 mph - N/A   Overcast
11:14 AM 54.7 °F 53.4 °F 96% 29.80 in 10.0 mi Calm Calm - N/A   Overcast
11:35 AM 55.4 °F 53.1 °F 92% 29.80 in 10.0 mi Calm Calm - N/A   Overcast
11:54 AM 55.6 °F 53.4 °F 92% 29.79 in 10.0 mi Calm Calm - N/A   Overcast
12:14 PM 56.1 °F 53.6 °F 91% 29.80 in 10.0 mi Calm Calm - N/A   Overcast
12:35 PM 56.3 °F 54.0 °F 92% 29.79 in 10.0 mi Calm Calm - N/A   Overcast
12:54 PM 56.5 °F 53.6 °F 90% 29.78 in 10.0 mi Calm Calm - N/A   Overcast
1:14 PM 55.8 °F 53.8 °F 93% 29.77 in 10.0 mi NNW 3.5 mph - N/A   Overcast
1:35 PM 55.4 °F 53.6 °F 94% 29.76 in 10.0 mi NNW 3.5 mph - N/A   Overcast
1:54 PM 55.6 °F 53.8 °F 94% 29.75 in 10.0 mi WNW 4.6 mph - N/A   Overcast
2:14 PM 56.3 °F 54.5 °F 94% 29.74 in 10.0 mi NW 5.8 mph - N/A   Overcast
2:35 PM 56.8 °F 54.1 °F 91% 29.74 in 10.0 mi NNW 4.6 mph - N/A   Overcast
2:54 PM 57.4 °F 54.3 °F 90% 29.74 in 10.0 mi WNW 4.6 mph - N/A   Overcast
3:14 PM 56.5 °F 54.5 °F 93% 29.73 in 10.0 mi North 4.6 mph - N/A   Overcast
3:34 PM 56.3 °F 54.5 °F 94% 29.73 in 10.0 mi NW 4.6 mph - N/A   Overcast
3:54 PM 55.9 °F 53.8 °F 92% 29.74 in 10.0 mi WNW 4.6 mph - N/A   Overcast
4:15 PM 55.4 °F 53.8 °F 94% 29.73 in 7.0 mi North 3.5 mph - N/A   Overcast
4:34 PM 55.4 °F 54.0 °F 95% 29.73 in 10.0 mi North 3.5 mph - N/A   Overcast
4:54 PM 55.0 °F 53.6 °F 95% 29.73 in 10.0 mi North 4.6 mph - N/A   Overcast
5:15 PM 54.7 °F 53.6 °F 96% 29.72 in 10.0 mi North 3.5 mph - N/A   Overcast
5:34 PM 54.7 °F 53.2 °F 95% 29.72 in 10.0 mi ENE 3.5 mph - N/A   Overcast
5:54 PM 54.5 °F 53.6 °F 97% 29.72 in 7.0 mi NE 3.5 mph - N/A   Overcast
6:15 PM 54.1 °F 53.6 °F 98% 29.71 in 10.0 mi Calm Calm - N/A   Overcast
6:34 PM 54.0 °F 53.2 °F 97% 29.70 in 10.0 mi Calm Calm - N/A   Overcast
6:55 PM 54.0 °F 53.2 °F 97% 29.70 in 10.0 mi Calm Calm - N/A   Overcast
7:15 PM 53.8 °F 53.2 °F 98% 29.70 in 10.0 mi Calm Calm - N/A   Overcast
7:34 PM 54.0 °F 53.4 °F 98% 29.70 in 7.0 mi SSW 3.5 mph - N/A   Overcast
7:55 PM 53.6 °F 53.6 °F 100% 29.69 in 3.0 mi SSW 3.5 mph - N/A   Drizzle
8:15 PM 53.6 °F 53.6 °F 100% 29.68 in 5.0 mi WSW 8.1 mph - N/A   Light Drizzle
8:34 PM 53.1 °F 53.1 °F 100% 29.68 in 10.0 mi WSW 5.8 mph - N/A   Overcast
8:55 PM 53.1 °F 53.1 °F 100% 29.68 in 10.0 mi WSW 4.6 mph - N/A   Overcast
9:15 PM 53.1 °F 53.1 °F 100% 29.68 in 10.0 mi WSW 4.6 mph - N/A   Overcast
9:34 PM 53.1 °F 53.1 °F 100% 29.68 in 10.0 mi WSW 4.6 mph - N/A   Overcast
9:55 PM 52.7 °F 52.3 °F 99% 29.67 in 10.0 mi SW 5.8 mph - N/A   Overcast
10:14 PM 52.3 °F 52.2 °F 99% 29.66 in 10.0 mi SW 6.9 mph - N/A   Overcast
10:34 PM 52.0 °F 52.0 °F 100% 29.65 in 10.0 mi SW 6.9 mph - N/A   Overcast
10:55 PM 51.8 °F 51.8 °F 100% 29.65 in 10.0 mi SW 6.9 mph - N/A   Overcast
11:14 PM 51.8 °F 51.3 °F 98% 29.64 in 10.0 mi SW 6.9 mph - N/A   Overcast
11:34 PM 51.8 °F 51.1 °F 97% 29.64 in 10.0 mi SW 5.8 mph - N/A   Overcast
11:55 PM 51.4 °F 50.9 °F 98% 29.63 in 4.0 mi SW 6.9 mph - N/A   Overcast